Regional Weather Roundup
Issued by NWS

Home | Current Version | Previous Version | Text Only | Print | Product List | Glossary On
Versions: 1 2 3 4 5 6 7 8 9 10 11 12 13 14 15 16 17 18 19 20 21 22 23 24 25 26 27 28 29 30 31 32 33 34 35 36 37 38 39 40 41 42 43 44 45 46 47 48 49 50
000
ASUS43 KBIS 292310
RWRND

NORTH DAKOTA REGIONAL WEATHER ROUNDUP
NATIONAL WEATHER SERVICE BISMARCK ND
600 PM CDT SAT AUG 29 2015

NOTE: "FAIR" INDICATES FEW OR NO CLOUDS BELOW 12,000 FEET WITH NO
SIGNIFICANT WEATHER AND/OR OBSTRUCTIONS TO VISIBILITY.


NDZ001>003-009>011-017-300000-
NORTHWEST NORTH DAKOTA

CITY           SKY/WX    TMP DP  RH WIND       PRES   REMARKS
WILLISTON      MOSUNNY   93  47  20 CALM      29.79F HAZE
MINOT          MOSUNNY   91  46  21 S9        29.79F HAZE
MINOT AFB      MOSUNNY   94  49  21 S10       29.77F HX  91
$$

NDZ018>021-031>035-040>046-300000-
SOUTHWEST NORTH DAKOTA

CITY           SKY/WX    TMP DP  RH WIND       PRES   REMARKS
BISMARCK       PTSUNNY   91  54  28 SE10      29.84F HAZE
DICKINSON      PTSUNNY   97  41  14 SW12      29.83F HX  92
GARRISON         N/A     92  54  27 S9        29.82F HX  90
HETTINGER ARPT SUNNY     96  45  17 S10       29.89F HX  92
$$

NDZ004>008-012>016-024-026-027-054-300000-
NORTHEAST NORTH DAKOTA

CITY           SKY/WX    TMP DP  RH WIND       PRES   REMARKS
GRAND FORKS    PTSUNNY   78  68  71 S14       29.83F
GRND FRKS AFB  PTSUNNY   79  69  72 S10       29.83F
DEVILS LAKE    PTSUNNY   82  64  54 S9        29.83F
$$

NDZ022-023-025-028>030-036>039-047>053-300000-
SOUTHEAST NORTH DAKOTA

CITY           SKY/WX    TMP DP  RH WIND       PRES   REMARKS
FARGO          MOSUNNY   83  67  58 S13       29.87F
JAMESTOWN      MOSUNNY   83  71  67 S7        29.86F
$$




USA.gov is the U.S. government's official web portal to all federal, state and local government web resources and services.